EW9532 Weather Reports


time (UTC)temp
F
wind
direction
speed
knots
gust
knots
rain 1hr
in
rain 24hr
in
rain mn
in
humidity
%
barometer
mb
20260509095129 75 135 0.0 0.0 0.00 0.11 0.00 97 1008.4
20260509094629 75 135 0.0 0.0 0.00 0.11 0.00 97 1008.6
20260509094548 75 0 0.0 0.0 0.00 0.11 0.00 96 1008.9
20260509094128 75 135 0.0 0.0 0.00 0.11 0.00 97 1008.5
20260509093628 75 135 0.0 0.0 0.00 0.11 0.00 96 1008.7
20260509093131 75 135 0.0 0.0 0.00 0.11 0.00 96 1008.7
20260509093050 75 0 0.0 0.0 0.00 0.11 0.00 96 1009.0
20260509092630 75 135 0.0 0.0 0.00 0.11 0.00 96 1008.6
20260509092144 75 135 0.0 0.0 0.00 0.11 0.00 96 1008.6
20260509091631 75 135 0.0 0.0 0.00 0.11 0.00 96 1008.6
20260509091555 75 0 0.0 0.0 0.00 0.11 0.00 96 1008.9
20260509091130 75 135 0.0 0.0 0.00 0.11 0.00 96 1008.7
20260509090628 75 135 0.0 0.0 0.00 0.11 0.00 96 1008.6
20260509090130 75 135 0.0 0.0 0.00 0.11 0.00 97 1008.6
20260509090101 75 0 0.0 0.0 0.00 0.11 0.00 96 1008.9
20260509085630 75 135 0.0 0.0 0.00 0.11 0.00 97 1008.7
20260509085129 75 135 0.0 0.0 0.00 0.11 0.00 97 1008.6
20260509084629 75 135 0.0 0.0 0.00 0.11 0.00 97 1008.6
20260509084553 75 0 0.0 0.0 0.00 0.11 0.00 96 1008.9
20260509084129 75 159 0.0 0.0 0.00 0.11 0.00 96 1008.4
20260509083628 75 159 0.0 1.7 0.00 0.11 0.00 96 1008.3
20260509083131 75 159 0.0 1.7 0.00 0.11 0.00 96 1008.4
20260509083054 75 0 0.0 1.7 0.00 0.11 0.00 96 1008.8
20260509082630 75 299 0.0 0.0 0.00 0.11 0.00 96 1008.3
20260509082354 75 299 0.0 0.9 0.00 0.11 0.00 96 1008.2
20260509081614 75 275 0.0 4.3 0.00 0.11 0.00 96 1008.2
20260509081556 75 275 0.0 4.3 0.00 0.11 0.00 96 1008.4
20260509081547 75 0 0.0 4.3 0.00 0.11 0.00 96 1008.5
20260509080607 76 93 0.0 0.0 0.00 0.11 0.00 96 1008.3
20260509080105 75 176 0.0 0.9 0.00 0.11 0.00 96 1008.4
20260509075607 75 176 0.0 0.9 0.00 0.11 0.00 96 1008.8
20260509075106 75 254 0.0 0.0 0.00 0.11 0.00 96 1008.9
20260509074607 75 254 0.0 0.0 0.00 0.11 0.00 96 1009.0
20260509074551 75 0 0.0 0.0 0.00 0.11 0.00 96 1009.3
20260509074046 75 254 0.0 0.0 0.00 0.11 0.00 96 1009.3
20260509073810 75 254 0.0 0.9 0.00 0.11 0.00 97 1009.3
20260509073102 75 0 0.0 0.0 0.00 0.11 0.00 96 1009.4
20260509073046 75 254 0.0 0.9 0.00 0.11 0.00 96 1009.1
20260509072543 75 52 0.0 0.0 0.00 0.11 0.00 96 1009.4
20260509072044 75 52 0.0 0.0 0.00 0.11 0.00 96 1009.7
20260509071808 75 52 0.0 0.0 0.00 0.11 0.00 96 1009.5
20260509071551 75 0 0.0 0.0 0.00 0.11 0.00 96 1009.8
20260509071034 75 52 0.0 0.9 0.00 0.11 0.00 96 1009.5
20260509070532 75 52 0.0 0.9 0.00 0.11 0.00 96 1009.6
20260509070055 75 0 0.0 1.7 0.00 0.11 0.00 96 1009.8
20260509070031 75 339 0.0 0.9 0.00 0.11 0.00 96 1009.5
20260509065521 75 167 0.0 3.5 0.00 0.11 0.00 96 1009.5
20260509065007 75 167 0.0 3.5 0.00 0.11 0.00 96 1009.3
20260509064548 75 0 0.0 1.7 0.00 0.17 0.00 96 1009.6
20260509064506 75 99 0.0 0.9 0.00 0.11 0.00 96 1009.2
20260509064005 75 316 0.0 0.0 0.00 0.11 0.00 96 1009.3
20260509063504 75 316 0.0 0.0 0.00 0.11 0.00 96 1009.6
20260509063050 75 0 0.0 1.7 0.00 0.17 0.00 96 1009.8
20260509063003 75 316 0.0 1.7 0.00 0.11 0.00 96 1009.6
20260509062502 75 316 0.0 1.7 0.00 0.12 0.00 96 1009.1
20260509062227 75 269 0.0 0.9 0.00 0.13 0.00 96 1008.9
20260509061546 75 235 0.0 1.7 0.00 0.17 0.00 96 1009.2
20260509061500 75 25 0.0 0.9 0.00 0.13 0.00 96 1008.9
20260509061001 75 334 0.0 0.9 0.00 0.14 0.00 96 1009.2
20260509060459 75 149 0.0 0.0 0.00 0.16 0.00 96 1009.4
20260509060054 75 0 0.0 0.0 0.00 0.17 0.00 95 1009.7
20260509055942 75 149 0.0 0.0 0.00 0.17 0.00 96 1009.5
20260509055434 75 149 0.0 0.0 0.00 0.18 0.00 96 1009.4
20260509054934 75 149 0.0 0.0 0.01 0.19 0.00 96 1009.4
20260509054553 75 0 0.0 0.0 0.01 0.21 0.00 95 1009.6
20260509054434 75 149 0.0 0.0 0.01 0.19 0.00 96 1009.3
20260509053933 75 149 0.0 0.9 0.02 0.19 0.00 96 1009.3
20260509053432 76 149 0.0 0.9 0.02 0.19 0.00 95 1009.5
20260509053048 75 0 0.0 0.0 0.02 0.21 0.00 95 1009.9
20260509052931 76 37 0.0 0.0 0.02 0.20 0.00 95 1009.7
20260509052430 76 37 0.0 3.5 0.02 0.20 0.00 95 1009.8
20260509051930 76 37 0.0 3.5 0.02 0.20 0.00 95 1009.6
20260509051547 75 0 0.0 5.2 0.02 0.21 0.00 94 1009.9
20260509051429 76 30 0.0 5.2 0.02 0.20 0.00 95 1009.6
20260509050929 76 307 0.9 5.2 0.02 0.21 0.00 94 1009.3
20260509050429 76 352 0.9 3.5 0.02 0.21 0.00 94 1009.6
20260509050057 76 0 0.0 0.0 0.02 0.21 0.00 93 1010.5
20260509045928 76 44 0.0 0.0 0.02 0.19 0.21 93 1010.3
20260509045430 77 44 0.0 0.9 0.02 0.19 0.21 90 1010.7
20260509044931 78 44 0.0 0.9 0.01 0.19 0.20 89 1010.7
20260509044550 78 0 0.0 3.5 0.01 0.21 0.20 87 1010.7
20260509044430 78 264 0.0 0.0 0.01 0.19 0.20 87 1010.4
20260509043930 79 264 0.0 4.3 0.00 0.19 0.19 86 1010.4
20260509043429 79 264 0.9 4.3 0.00 0.19 0.19 85 1010.3
20260509043049 78 0 0.0 0.0 0.00 0.20 0.19 85 1010.6
20260509042929 79 61 0.0 0.0 0.00 0.19 0.19 85 1010.5
20260509042650 79 61 0.0 2.6 0.00 0.19 0.19 85 1010.5
20260509041929 79 274 0.0 2.6 0.00 0.19 0.19 85 1010.5
20260509041720 79 45 0.0 2.6 0.00 0.19 0.19 85 1010.4
20260509041552 79 0 0.0 3.5 0.00 0.20 0.19 84 1010.8
20260509040929 80 193 0.0 2.6 0.00 0.19 0.19 84 1010.0
20260509040429 80 187 0.0 0.9 0.00 0.19 0.19 84 1009.8
20260509040051 80 0 0.0 5.2 0.00 0.20 0.19 83 1010.1
20260509035928 80 357 0.0 4.3 0.00 0.20 0.19 83 1009.8
20260509035429 80 47 0.9 4.3 0.00 0.20 0.19 83 1009.5
20260509034929 80 221 0.0 4.3 0.00 0.20 0.19 83 1009.5
20260509034547 80 0 0.9 5.2 0.00 0.20 0.19 82 1009.8
20260509034429 80 143 0.9 4.3 0.00 0.20 0.19 82 1009.6
20260509033929 81 150 0.0 4.3 0.00 0.20 0.19 82 1009.7
20260509033429 81 347 0.0 4.3 0.00 0.20 0.19 82 1009.6
20260509033105 81 0 0.0 5.2 0.00 0.20 0.19 81 1010.0
20260509032928 81 341 0.0 2.6 0.00 0.20 0.19 81 1009.7
20260509032431 81 278 0.0 4.3 0.00 0.20 0.19 81 1009.3
20260509032155 81 199 0.0 4.3 0.00 0.20 0.19 81 1009.0
20260509031547 81 179 0.0 5.2 0.00 0.20 0.19 80 1009.1
20260509031430 82 96 0.0 6.1 0.00 0.20 0.19 80 1008.7
20260509031223 82 354 1.7 6.1 0.00 0.20 0.19 80 1008.7
20260509030650 82 142 1.7 4.3 0.00 0.20 0.19 80 1008.7
20260509030053 82 146 0.0 4.3 0.00 0.20 0.19 79 1009.0
20260509025928 82 257 0.0 2.6 0.00 0.20 0.19 80 1008.8
20260509025429 82 323 0.0 2.6 0.00 0.20 0.19 79 1008.8
20260509024929 83 328 0.0 4.3 0.00 0.20 0.19 79 1008.7
20260509024557 82 301 0.0 6.1 0.00 0.20 0.19 78 1008.9
20260509024445 83 110 0.0 6.1 0.00 0.20 0.19 78 1008.8
20260509024436 83 262 0.0 6.1 0.00 0.20 0.19 78 1008.8
20260509023429 83 154 0.0 3.5 0.00 0.20 0.19 78 1008.7
20260509023154 83 112 0.9 3.5 0.00 0.20 0.19 77 1008.7
20260509023051 83 0 0.0 3.5 0.00 0.20 0.19 77 1009.0
20260509022431 84 176 0.0 2.6 0.00 0.20 0.19 77 1008.6
20260509021931 84 356 0.0 0.0 0.00 0.20 0.19 77 1008.6
20260509021548 84 0 0.0 0.9 0.00 0.20 0.19 76 1008.8
20260509021431 84 252 0.0 0.9 0.00 0.20 0.19 76 1008.6
20260509020931 84 252 0.0 0.9 0.00 0.20 0.19 76 1008.3
20260509020720 85 237 0.0 5.2 0.00 0.20 0.19 75 1008.3
20260509020047 84 0 0.0 5.2 0.00 0.20 0.19 75 1008.7
20260509015930 85 248 0.9 5.2 0.00 0.20 0.19 75 1008.4
20260509015656 85 356 0.9 6.1 0.00 0.20 0.19 75 1008.5
20260509014928 85 34 1.7 6.1 0.00 0.20 0.19 74 1008.4
20260509014650 85 182 0.0 4.3 0.00 0.20 0.19 74 1008.1
20260509014550 85 278 0.0 3.5 0.00 0.20 0.19 74 1008.4
20260509013922 86 41 0.0 3.5 0.00 0.20 0.19 75 1007.7
20260509013710 86 26 0.0 4.3 0.00 0.20 0.19 74 1007.7
20260509013055 85 0 0.0 6.1 0.00 0.20 0.19 74 1008.0
20260509012913 86 104 0.9 7.0 0.00 0.20 0.19 74 1007.6
20260509012638 86 66 0.0 7.0 0.00 0.20 0.19 74 1007.5
20260509011913 86 277 0.0 6.1 0.00 0.20 0.19 74 1007.4
20260509011601 85 0 0.0 6.1 0.00 0.20 0.19 74 1007.6
20260509011411 86 41 0.9 6.1 0.00 0.20 0.19 74 1007.4
20260509010911 86 215 0.9 5.2 0.00 0.20 0.19 74 1007.1
20260509010409 86 250 0.9 5.2 0.00 0.20 0.19 75 1007.0
20260509010047 86 0 0.0 5.2 0.00 0.20 0.19 74 1007.2
20260509005905 86 191 0.9 4.3 0.00 0.20 0.19 75 1006.9
20260509005401 86 288 0.0 4.3 0.00 0.20 0.19 75 1006.8
20260509005124 86 334 0.0 4.3 0.00 0.20 0.19 75 1006.9
20260509004555 86 324 0.9 4.3 0.00 0.20 0.19 75 1007.3
20260509004401 86 285 0.9 4.3 0.00 0.20 0.19 76 1007.2
20260509003901 87 293 0.0 2.6 0.00 0.20 0.19 77 1007.3
20260509003402 87 233 0.0 2.6 0.00 0.20 0.19 77 1007.3
20260509003150 87 131 0.0 4.3 0.00 0.20 0.19 77 1007.1
20260509003051 86 0 0.0 5.2 0.00 0.20 0.19 76 1007.5
20260509002401 87 131 0.0 4.3 0.00 0.20 0.19 76 1007.0
20260509002124 87 337 0.0 4.3 0.00 0.20 0.19 75 1007.3
20260509001553 87 273 0.0 4.3 0.00 0.20 0.19 74 1007.5
20260509001402 87 149 0.9 4.3 0.00 0.20 0.19 74 1007.2
20260509000902 88 221 0.0 3.5 0.00 0.20 0.19 73 1007.0
20260509000627 88 341 0.0 3.5 0.00 0.20 0.19 74 1007.1
20260509000050 87 0 0.0 3.5 0.00 0.20 0.19 73 1007.3
20260508235902 87 336 0.0 3.5 0.00 0.20 0.19 73 1007.0
20260508235402 88 305 0.0 0.9 0.00 0.20 0.19 73 1007.0
20260508234903 88 217 0.0 1.7 0.00 0.20 0.19 73 1007.1
20260508234547 88 0 0.0 1.7 0.00 0.20 0.19 72 1007.4
20260508234402 88 125 0.0 1.7 0.00 0.20 0.19 72 1007.1
20260508233903 88 142 0.0 0.0 0.00 0.20 0.19 72 1007.2
20260508233403 88 142 0.0 0.0 0.00 0.20 0.19 72 1007.3
20260508233049 87 0 0.0 0.0 0.00 0.20 0.19 71 1007.6
20260508232900 88 142 0.0 0.9 0.00 0.20 0.19 72 1007.3
20260508232400 88 142 0.0 0.9 0.00 0.20 0.19 72 1007.4
20260508231901 88 303 0.0 0.9 0.00 0.20 0.19 72 1007.4
20260508231631 88 328 0.0 0.9 0.00 0.20 0.19 72 1007.3
20260508231553 87 0 0.0 0.9 0.00 0.20 0.19 72 1007.5
20260508231126 87 302 0.0 0.9 0.00 0.20 0.19 72 1007.3
20260508230624 87 302 0.0 0.9 0.00 0.20 0.19 72 1007.3
20260508230050 87 0 0.0 0.9 0.00 0.20 0.19 72 1007.6
20260508225901 87 6 0.0 0.9 0.00 0.20 0.19 73 1007.3
20260508225401 87 95 0.0 1.7 0.00 0.20 0.19 73 1007.2
20260508224901 88 354 0.0 1.7 0.00 0.20 0.19 72 1007.2
20260508224609 87 314 0.0 0.0 0.00 0.20 0.19 72 1007.4
20260508224401 88 32 0.0 0.9 0.00 0.20 0.19 72 1007.3
20260508223901 88 252 0.0 0.9 0.00 0.20 0.19 72 1007.3
20260508223401 88 252 0.0 3.5 0.00 0.20 0.19 72 1007.3
20260508223127 88 8 0.0 3.5 0.00 0.20 0.19 71 1007.3
20260508223052 87 0 0.0 3.5 0.00 0.20 0.19 71 1007.5
20260508222400 88 26 0.0 3.5 0.00 0.20 0.19 72 1007.6
20260508221902 88 259 0.0 2.6 0.00 0.20 0.19 72 1007.5
20260508221602 87 0 0.0 1.7 0.00 0.20 0.19 71 1008.0
20260508221415 88 176 0.0 2.6 0.00 0.20 0.19 72 1007.6
20260508220902 88 96 0.0 0.9 0.00 0.20 0.19 71 1007.6
20260508220402 88 199 0.0 0.9 0.00 0.20 0.19 71 1007.8
20260508220049 87 0 0.0 0.9 0.00 0.20 0.19 71 1007.9
20260508215901 88 56 0.0 0.9 0.00 0.20 0.19 71 1007.7
20260508215400 88 56 0.0 0.9 0.00 0.20 0.19 70 1007.8
20260508214901 88 116 0.0 0.9 0.00 0.20 0.19 69 1007.9
20260508214551 88 0 0.0 0.0 0.00 0.20 0.19 70 1008.4
20260508214401 88 295 0.0 0.0 0.00 0.20 0.19 70 1008.2
20260508213901 88 295 0.0 0.9 0.00 0.20 0.19 70 1008.2
20260508213627 88 295 0.0 3.5 0.00 0.20 0.19 69 1008.3
20260508213123 89 199 0.0 3.5 0.00 0.20 0.19 70 1008.4
20260508213049 88 0 0.0 3.5 0.00 0.20 0.19 69 1008.7
20260508212400 89 270 0.0 0.0 0.00 0.20 0.19 69 1008.5
20260508211901 89 270 0.0 0.0 0.00 0.20 0.19 69 1008.8
20260508211553 89 0 0.0 0.0 0.00 0.20 0.19 68 1009.0
20260508211401 89 270 0.0 0.0 0.00 0.20 0.19 69 1008.8
20260508210901 89 270 0.0 0.0 0.00 0.20 0.19 68 1008.8
20260508210402 90 270 0.0 0.0 0.00 0.20 0.19 67 1008.9
20260508210057 89 0 0.0 0.9 0.00 0.20 0.19 66 1009.1
20260508205902 90 270 0.0 0.9 0.00 0.20 0.19 66 1008.8
20260508205625 90 269 0.0 0.9 0.00 0.20 0.19 66 1008.9
20260508204901 90 270 0.0 0.0 0.00 0.20 0.19 69 1008.9
20260508204627 89 270 0.0 1.7 0.00 0.20 0.19 69 1008.8
20260508204547 89 0 0.0 2.6 0.00 0.20 0.19 69 1009.3
20260508203901 89 270 0.0 1.7 0.00 0.20 0.19 70 1009.2
20260508203401 89 15 0.0 0.0 0.00 0.20 0.19 69 1009.3
20260508203127 89 15 0.0 0.0 0.00 0.20 0.19 69 1009.3
20260508203059 88 0 0.0 0.0 0.00 0.20 0.19 69 1009.5
20260508202400 89 15 0.0 0.0 0.00 0.20 0.19 69 1009.4
20260508201901 89 15 0.0 0.0 0.00 0.20 0.19 69 1009.5
20260508201548 89 0 0.0 0.9 0.00 0.20 0.19 70 1009.8
20260508201400 89 290 0.0 0.0 0.00 0.20 0.19 71 1009.5
20260508200901 89 290 0.0 0.0 0.00 0.20 0.19 69 1009.6
20260508200401 89 259 0.0 1.7 0.00 0.20 0.19 70 1009.8
20260508200125 89 259 0.0 1.7 0.00 0.20 0.19 71 1009.9
20260508200105 89 0 0.0 1.7 0.00 0.20 0.19 70 1010.2
20260508195400 89 207 0.0 0.0 0.00 0.20 0.19 70 1010.0
20260508194902 90 221 0.0 0.0 0.00 0.20 0.19 71 1010.1
20260508194551 89 0 0.0 0.9 0.00 0.20 0.19 71 1010.3
20260508194354 88 221 0.0 0.9 0.00 0.20 0.19 74 1010.0
20260508194111 87 221 0.0 1.7 0.00 0.20 0.19 72 1010.2
20260508193344 88 31 0.0 1.7 0.00 0.20 0.19 74 1010.3
20260508193104 87 0 0.0 1.7 0.00 0.20 0.19 71 1010.6
20260508192843 88 90 0.0 0.0 0.00 0.20 0.19 73 1010.3
20260508192344 87 90 0.0 0.9 0.00 0.20 0.19 74 1010.4
20260508191841 87 38 0.0 0.9 0.00 0.20 0.19 75 1010.4
20260508191547 86 0 0.0 0.0 0.00 0.20 0.19 75 1010.7
20260508191341 87 143 0.0 0.9 0.00 0.20 0.19 76 1010.4
20260508190841 86 143 0.0 0.9 0.00 0.20 0.19 77 1010.4
20260508190339 85 122 0.0 0.0 0.00 0.20 0.19 77 1010.5
20260508190050 85 0 0.0 0.0 0.00 0.20 0.19 77 1010.9
20260508185836 86 122 0.0 0.0 0.00 0.20 0.19 76 1010.6
20260508185334 85 122 0.0 0.0 0.00 0.20 0.19 78 1010.8
20260508184830 84 122 0.0 0.9 0.00 0.20 0.19 80 1010.9
20260508184552 83 0 0.0 0.9 0.00 0.20 0.19 80 1011.2
20260508184329 83 122 0.0 0.9 0.00 0.20 0.19 80 1010.9
20260508183829 83 239 0.0 0.9 0.00 0.20 0.19 81 1011.0
20260508183327 83 281 0.0 0.0 0.00 0.20 0.19 81 1011.1
20260508183106 82 0 0.0 0.0 0.00 0.20 0.19 81 1011.4
20260508182827 83 212 0.0 0.0 0.00 0.20 0.19 81 1011.2
20260508182320 83 212 0.0 0.9 0.00 0.20 0.19 82 1011.6
20260508181819 82 86 0.0 0.9 0.00 0.20 0.19 83 1011.3
20260508181608 82 0 0.0 1.7 0.00 0.20 0.19 82 1011.6
20260508181312 82 274 0.0 2.6 0.00 0.20 0.19 84 1011.4
20260508180811 81 228 0.0 2.6 0.00 0.20 0.19 85 1011.4
20260508180310 80 276 0.0 3.5 0.00 0.20 0.19 86 1011.6
20260508180049 79 0 0.0 2.6 0.00 0.20 0.19 88 1011.8
20260508175805 79 276 0.0 3.5 0.00 0.20 0.19 90 1011.7
20260508175306 79 235 0.0 3.5 0.00 0.20 0.19 91 1011.8
20260508175246 78 27 0.9 3.5 0.00 0.20 0.19 93 1011.7
20260508174547 77 0 0.0 0.9 0.00 0.20 0.19 94 1012.0
20260508174303 77 27 0.0 0.9 0.00 0.20 0.19 95 1011.9
20260508173802 76 26 0.0 0.0 0.00 0.20 0.19 95 1011.9
20260508173302 76 26 0.0 0.0 0.00 0.20 0.19 95 1012.1
20260508173047 75 0 0.0 0.0 0.00 0.20 0.19 95 1012.3
20260508172802 76 26 0.0 0.0 0.00 0.20 0.19 96 1012.2
20260508172301 75 26 0.0 0.0 0.00 0.20 0.19 96 1012.4
20260508171800 75 26 0.0 1.7 0.00 0.20 0.19 97 1012.4
20260508171549 74 0 0.0 0.9 0.00 0.20 0.19 96 1012.7
20260508171301 74 26 0.0 1.7 0.00 0.20 0.19 96 1012.5
20260508171024 74 238 0.0 0.0 0.00 0.20 0.19 97 1012.5
20260508170532 74 238 0.0 0.0 0.00 0.20 0.19 97 1012.5
20260508170107 73 238 0.0 0.9 0.00 0.20 0.19 97 1012.7
20260508170050 73 0 0.0 0.9 0.00 0.20 0.19 96 1012.8
20260508165235 73 238 0.0 0.9 0.00 0.20 0.19 97 1012.8
20260508164731 73 197 0.0 0.0 0.00 0.20 0.19 97 1013.0
20260508164713 73 197 0.0 0.0 0.00 0.20 0.19 96 1013.1
20260508164553 72 0 0.0 0.0 0.00 0.20 0.19 96 1013.3
20260508163730 73 197 0.0 0.0 0.00 0.20 0.19 96 1013.1
20260508163229 73 197 0.0 0.0 0.00 0.20 0.19 96 1013.3
20260508163053 73 0 0.0 0.0 0.00 0.20 0.19 95 1013.5
20260508162729 74 197 0.0 0.0 0.00 0.20 0.19 96 1013.1
20260508162510 74 197 0.0 0.0 0.00 0.20 0.19 97 1012.9
20260508161939 74 197 0.0 0.0 0.00 0.20 0.19 97 1013.1
20260508161655 74 197 0.0 0.0 0.00 0.20 0.19 97 1013.0
20260508161550 73 0 0.0 0.0 0.00 0.20 0.19 96 1013.3
20260508161153 74 197 0.0 0.0 0.00 0.20 0.19 97 1013.0
20260508160425 74 197 0.0 0.0 0.00 0.20 0.19 97 1013.2
20260508160053 73 0 0.0 0.0 0.00 0.20 0.19 97 1013.4
20260508155706 74 197 0.0 0.0 0.00 0.20 0.19 97 1013.2
20260508155203 73 197 0.0 0.0 0.00 0.20 0.19 97 1013.3
20260508154701 73 197 0.0 0.0 0.00 0.20 0.19 97 1013.3
20260508154549 73 0 0.0 0.0 0.00 0.20 0.19 97 1013.5
20260508154201 73 197 0.0 0.0 0.00 0.20 0.19 97 1013.4
20260508153701 73 197 0.0 0.0 0.00 0.20 0.19 97 1013.3
20260508153200 73 197 0.0 0.0 0.00 0.20 0.19 97 1013.4
20260508153055 72 0 0.0 0.0 0.00 0.20 0.19 97 1013.7
20260508152701 73 197 0.0 0.0 0.00 0.20 0.19 97 1013.6
20260508152202 73 197 0.0 0.0 0.00 0.20 0.19 97 1013.5
20260508151700 72 197 0.0 0.0 0.00 0.20 0.19 97 1013.6
20260508151550 72 0 0.0 0.0 0.00 0.20 0.19 97 1013.7
20260508151201 72 197 0.0 0.0 0.00 0.20 0.19 97 1013.5
20260508150701 72 197 0.0 0.0 0.00 0.20 0.19 97 1013.6
20260508150201 72 197 0.0 0.0 0.00 0.20 0.19 97 1013.6
20260508150109 71 0 0.0 0.0 0.00 0.20 0.19 97 1013.6
20260508145701 72 197 0.0 0.0 0.00 0.20 0.19 97 1013.4
20260508145201 72 197 0.0 0.0 0.00 0.20 0.19 97 1013.3
20260508144701 71 197 0.0 0.0 0.00 0.20 0.19 97 1013.4
20260508144553 71 0 0.0 0.0 0.00 0.20 0.19 97 1013.7
20260508144203 72 197 0.0 0.0 0.00 0.20 0.19 97 1013.6
20260508143703 72 197 0.0 0.0 0.00 0.20 0.19 97 1013.3
20260508143202 71 197 0.0 0.0 0.00 0.20 0.19 97 1013.2
20260508143052 71 0 0.0 0.0 0.00 0.20 0.19 97 1013.4
20260508142702 71 197 0.0 0.0 0.00 0.20 0.19 97 1013.3
20260508142202 71 197 0.0 0.0 0.00 0.20 0.19 97 1013.3
20260508141922 71 197 0.0 0.0 0.00 0.20 0.19 97 1013.4
20260508141600 70 0 0.0 0.0 0.00 0.20 0.19 97 1013.6
20260508141201 71 197 0.0 0.0 0.00 0.20 0.19 97 1013.4
20260508140702 71 197 0.0 0.0 0.00 0.20 0.19 97 1013.3
20260508140201 71 197 0.0 0.0 0.00 0.20 0.19 97 1013.3
20260508140059 70 0 0.0 0.0 0.00 0.20 0.19 97 1013.3
20260508135927 71 197 0.0 0.0 0.00 0.20 0.19 97 1013.1
20260508135201 71 197 0.0 0.0 0.00 0.20 0.19 97 1013.2
20260508134701 71 197 0.0 0.0 0.00 0.20 0.19 97 1013.2
20260508134548 70 0 0.0 0.0 0.00 0.20 0.19 97 1013.5
20260508134202 71 197 0.0 0.0 0.00 0.20 0.19 97 1013.2
20260508133702 71 197 0.0 0.0 0.00 0.20 0.19 97 1013.3
20260508133202 71 197 0.0 0.0 0.00 0.20 0.19 97 1013.3
20260508133045 70 0 0.0 0.0 0.00 0.20 0.19 97 1013.5
20260508132702 70 197 0.0 0.0 0.00 0.20 0.19 97 1013.5
20260508132202 71 197 0.0 0.0 0.00 0.20 0.19 97 1013.4
20260508131702 70 197 0.0 0.0 0.00 0.20 0.19 97 1013.5
20260508131556 70 0 0.0 0.0 0.00 0.20 0.19 97 1013.6
20260508131202 70 197 0.0 0.0 0.00 0.20 0.19 97 1013.4
20260508130702 70 197 0.0 0.0 0.00 0.20 0.19 97 1013.5
20260508130202 70 197 0.0 0.0 0.00 0.20 0.19 97 1013.6
20260508130047 70 0 0.0 0.0 0.00 0.20 0.19 97 1013.8
20260508125922 70 197 0.0 0.0 0.00 0.20 0.19 97 1013.5
20260508125202 70 197 0.0 0.0 0.00 0.20 0.19 97 1013.5
20260508124701 70 191 0.0 0.0 0.00 0.20 0.19 97 1013.7
20260508124548 69 0 0.0 0.0 0.00 0.20 0.19 97 1013.8
20260508124201 70 191 0.0 0.0 0.00 0.20 0.19 97 1013.6
20260508123950 70 191 0.0 0.0 0.00 0.20 0.19 97 1013.5
20260508123201 70 191 0.0 0.0 0.00 0.20 0.19 97 1013.5
20260508123047 69 0 0.0 0.0 0.00 0.20 0.19 97 1013.6
20260508122919 70 191 0.0 0.0 0.00 0.20 0.19 97 1013.4
20260508122201 70 191 0.0 0.9 0.00 0.20 0.19 97 1013.3
20260508121701 70 191 0.0 0.9 0.00 0.20 0.19 97 1013.2
20260508121550 70 0 0.0 0.0 0.00 0.20 0.19 97 1013.3
20260508121201 70 207 0.0 0.0 0.01 0.20 0.19 97 1013.1
20260508120703 70 207 0.0 0.0 0.02 0.20 0.19 97 1012.9
20260508120202 70 288 0.0 0.9 0.03 0.20 0.19 97 1013.0
20260508120053 70 0 0.0 0.9 0.03 0.20 0.19 97 1013.2
20260508115702 70 288 0.0 0.9 0.04 0.17 0.19 97 1012.9
20260508115425 70 227 0.0 0.0 0.04 0.17 0.19 97 1012.8
20260508114702 71 227 0.0 0.0 0.04 0.17 0.19 97 1012.7
20260508114553 70 0 0.0 0.0 0.04 0.20 0.19 97 1013.0
20260508114202 71 227 0.0 0.0 0.04 0.17 0.19 97 1012.7
20260508113703 70 227 0.0 0.0 0.04 0.17 0.19 97 1012.9
20260508113202 70 227 0.0 0.0 0.04 0.17 0.19 97 1012.7
20260508113121 70 0 0.0 0.0 0.04 0.20 0.19 97 1012.9
20260508112702 70 227 0.0 0.0 0.04 0.17 0.19 97 1012.5
20260508112202 70 227 0.0 0.0 0.05 0.17 0.19 97 1012.6
20260508111702 70 227 0.0 0.0 0.05 0.17 0.19 97 1012.4
20260508111550 70 0 0.0 0.0 0.05 0.20 0.19 97 1012.5
20260508111421 70 227 0.0 0.0 0.05 0.17 0.18 97 1012.5
20260508110701 70 227 0.0 0.0 0.04 0.17 0.17 97 1012.8
20260508110201 70 227 0.0 0.0 0.04 0.17 0.16 97 1012.9
20260508110049 70 0 0.0 0.0 0.04 0.17 0.16 96 1013.1
20260508105701 70 227 0.0 0.0 0.04 0.13 0.15 97 1013.2
20260508105201 70 227 0.0 0.9 0.05 0.13 0.15 97 1013.4
20260508104701 70 227 0.0 0.9 0.05 0.13 0.15 97 1013.3
20260508104555 70 0 0.0 0.9 0.05 0.16 0.15 96 1013.6
20260508104200 71 256 0.0 0.0 0.05 0.13 0.15 97 1013.2
20260508103925 71 256 0.0 0.0 0.05 0.13 0.15 97 1013.1
20260508103202 71 256 0.0 1.7 0.05 0.13 0.15 97 1012.9
20260508103103 70 0 0.0 1.7 0.05 0.16 0.15 96 1013.1
20260508102703 71 256 0.0 1.7 0.05 0.13 0.15 97 1012.8
20260508102202 71 304 0.0 0.0 0.04 0.13 0.14 97 1012.6
20260508101702 71 304 0.0 0.0 0.04 0.13 0.14 97 1012.6
20260508101551 71 0 0.0 0.0 0.04 0.15 0.14 97 1012.8
20260508101202 71 304 0.0 0.0 0.03 0.13 0.13 97 1012.1
20260508100703 71 304 0.0 0.0 0.03 0.13 0.13 97 1012.2
20260508100202 71 304 0.0 0.0 0.02 0.13 0.12 97 1012.3
20260508100052 71 0 0.0 0.0 0.02 0.13 0.12 96 1012.7
20260508095703 71 304 0.0 0.9 0.01 0.11 0.11 97 1012.6